Wind_Speed
7 8 8 7 6 7 6 5 5 4 3 3 3 3 3 3 3 3 4 4 4 4 5 5 5 6 6 6 7 8 8 9 9 9 9 9 9 8 8 7 7 6 6 6 6 6 6 6 6
6 7 8 7 6 6 5 5 4 5 4 3 3 3 4 4 4 4 5 6 6 6 6 7 7 7 8 8 9 9 9 10 10 10 10 10 9 9 8 8 7 6 6 6 5 5 5 5 5
6 6 8 7 6 6 5 5 5 5 5 4 4 4 5 6 6 7 7 7 8 8 8 8 9 10 10 10 11 11 11 11 11 11 11 11 10 10 9 9 8 7 7 6 5 5 4 4 4
6 6 7 6 5 5 6 6 7 7 6 6 6 6 7 8 8 9 9 9 10 10 10 10 10 11 12 12 13 13 13 13 13 13 13 13 12 11 11 10 9 8 8 7 6 5 5 4 4
5 6 7 6 6 6 7 8 8 8 8 9 9 10 10 10 10 11 11 12 12 12 12 12 12 13 13 14 15 15 15 16 16 16 16 15 14 14 13 12 11 10 9 8 7 6 6 5 5
6 6 6 6 7 8 8 9 9 10 11 12 12 12 12 13 13 14 14 14 14 14 15 15 15 15 15 16 17 17 17 18 18 18 19 18 17 16 15 14 13 12 11 10 9 8 7 6 6
6 7 8 8 9 10 11 12 12 13 14 14 15 15 16 16 17 17 18 18 18 18 18 19 18 18 18 19 19 19 19 19 20 20 20 20 20 19 18 17 16 15 14 12 11 10 9 8 8
8 9 9 10 10 11 13 13 14 15 16 17 18 18 19 20 21 21 21 22 22 21 21 22 23 23 23 23 22 22 22 21 22 22 22 21 21 21 21 20 19 17 16 15 14 13 12 11 10
9 10 10 11 12 13 15 16 16 17 19 20 21 22 22 23 23 24 24 24 24 25 25 26 27 27 26 27 27 26 26 25 25 25 24 24 23 22 22 22 22 21 19 18 16 16 14 13 12
11 11 12 14 15 16 16 17 18 20 21 22 23 24 24 25 25 26 27 27 28 28 29 30 30 31 31 31 31 31 30 29 28 28 27 26 26 24 23 23 23 23 22 21 20 18 17 16 15
12 13 14 15 16 17 18 19 21 22 23 24 25 25 26 26 27 28 29 30 30 31 31 32 33 34 34 34 35 34 34 33 31 31 30 29 28 28 27 25 25 25 24 23 22 21 20 19 17
14 14 15 16 17 18 19 21 23 24 25 26 27 27 28 28 29 30 30 31 31 32 32 33 34 35 35 36 37 38 38 38 36 35 34 33 32 31 30 29 28 27 26 26 24 23 22 21 20
15 15 16 17 18 20 21 23 24 25 26 27 28 28 28 29 29 29 29 30 30 30 31 32 33 34 35 36 37 38 39 40 40 40 39 38 37 35 33 32 31 31 28 27 27 25 25 24 22
15 16 17 18 19 21 22 24 25 26 27 27 27 28 27 27 27 27 28 28 29 29 29 29 30 30 32 33 34 36 37 38 40 41 41 41 41 39 37 35 34 33 32 29 29 28 27 26 24
16 17 18 19 20 22 23 24 25 26 26 26 26 26 26 26 26 26 25 26 26 26 27 27 27 27 28 29 31 32 34 36 38 39 40 41 42 41 40 37 35 34 33 31 30 31 29 29 27
16 17 19 20 21 22 23 23 24 24 25 25 25 25 24 23 23 22 22 23 23 24 24 24 24 25 26 26 27 29 30 32 34 36 38 39 41 42 41 41 38 36 35 34 33 31 31 31 29
16 17 19 21 21 22 22 22 22 23 23 22 22 22 21 20 20 20 21 21 22 22 22 23 24 25 25 25 26 26 28 29 31 33 35 37 38 40 41 41 41 40 38 37 36 35 34 33 31
16 17 19 20 20 20 20 20 20 20 20 19 18 18 18 19 19 20 20 21 21 21 22 22 23 23 24 24 25 26 26 28 29 31 32 34 36 38 39 40 41 42 41 39 38 37 36 35 32
16 17 18 18 18 18 18 18 18 18 17 16 16 17 17 18 19 19 20 20 20 21 21 21 22 22 21 21 22 23 23 24 26 28 30 32 33 36 37 38 39 41 42 41 40 39 38 37 35
15 16 16 16 16 16 15 15 15 15 14 14 15 16 17 17 18 19 19 19 20 20 21 21 20 20 19 19 19 19 20 21 22 24 27 29 30 32 34 36 37 39 41 42 42 41 39 39 37
14 14 14 14 14 13 13 13 13 12 13 13 14 15 16 17 17 18 19 20 20 21 21 21 20 19 18 18 18 18 18 19 20 21 23 25 27 30 32 34 35 37 39 41 42 42 40 40 39
12 12 12 12 11 11 11 10 11 12 12 13 13 14 15 16 17 18 19 20 21 21 21 21 21 19 18 18 17 18 18 18 18 19 20 22 24 26 28 31 33 35 37 39 40 41 41 41 41
10 9 9 9 8 8 8 9 10 11 12 12 13 14 15 16 18 18 19 20 21 22 22 21 20 19 19 18 18 18 18 17 17 16 17 18 20 23 25 28 30 32 33 36 38 39 41 42 42
7 7 7 7 6 6 7 8 9 10 11 12 13 14 15 17 18 19 19 20 21 22 22 21 20 20 20 20 19 19 18 17 16 16 15 16 18 20 21 24 26 28 31 33 35 37 39 41 42
5 5 5 5 6 6 6 7 8 9 11 12 13 14 16 17 18 19 19 20 21 22 23 22 21 21 21 21 21 20 19 18 17 15 13 13 14 16 18 20 22 24 27 30 32 33 36 39 40
3 2 3 4 4 5 6 7 8 9 11 12 13 14 16 17 18 19 19 20 21 22 22 22 22 23 23 23 22 21 20 19 18 15 13 11 11 12 14 16 18 20 23 26 28 30 32 35 38
1 1 2 3 4 5 6 7 8 9 11 12 13 15 16 17 18 19 19 20 21 22 23 23 23 24 24 23 23 22 21 20 18 16 14 12 10 10 10 12 15 16 19 22 25 27 29 32 34
1 2 2 3 4 4 5 6 7 9 10 12 13 15 16 18 18 19 19 20 22 22 23 23 23 24 24 25 24 23 22 21 20 17 15 12 10 8 8 9 11 13 16 19 22 24 26 28 31
2 2 2 3 3 4 5 6 7 8 10 12 13 14 16 17 18 19 20 20 22 23 23 24 24 25 25 25 25 24 23 22 21 19 16 13 11 10 8 7 9 11 13 16 19 21 23 26 28
3 3 2 3 3 3 4 6 7 8 10 11 13 14 15 17 18 18 19 20 22 23 24 24 24 25 25 26 26 25 24 22 21 19 17 15 13 12 10 8 8 9 11 14 17 19 21 23 25
Wind_Direction
44 33 30 39 43 48 46 38 37 36 33 36 30 23 5 335 320 300 294 280 266 253 241 230 221 217 215 214 215 215 214 212 212 211 209 208 208 209 211 214 217 220 225 230 239 248 255 256 259
28 27 28 31 33 33 27 18 13 10 7 8 0 352 340 326 321 309 302 291 280 271 261 249 238 234 230 226 225 225 224 221 219 218 217 217 217 216 216 217 217 219 223 226 232 240 247 251 253
6 13 15 17 20 16 2 352 348 346 347 343 337 330 321 317 315 307 301 297 290 284 274 266 253 247 244 240 236 233 232 231 229 227 226 223 223 222 222 222 223 223 224 226 230 235 240 245 248
350 352 359 2 356 351 348 345 336 330 329 326 324 318 313 309 307 303 299 298 291 287 282 272 262 257 253 249 245 244 239 237 236 234 232 230 228 227 227 226 225 226 226 228 232 235 237 241 245
335 339 348 348 338 332 331 329 325 320 319 319 317 313 310 308 304 301 298 294 289 285 283 273 269 265 257 253 250 251 248 243 241 240 238 234 233 232 231 231 230 231 231 231 233 237 240 244 247
317 321 326 324 319 317 317 320 317 314 313 312 312 310 306 305 302 299 297 292 289 287 281 276 271 270 265 260 258 256 254 249 247 246 241 239 237 236 235 235 234 234 235 237 238 239 242 245 247
308 312 310 309 309 310 309 311 310 309 309 308 306 304 301 299 297 294 292 290 288 285 281 278 274 273 269 266 264 262 259 256 254 254 249 244 242 240 240 239 237 237 237 238 239 240 242 244 247
300 305 307 308 306 305 306 307 307 306 306 305 304 301 298 297 295 292 289 287 285 283 280 278 274 273 272 267 266 265 263 260 258 258 256 251 248 245 242 241 240 240 239 239 240 241 241 242 245
295 299 301 303 304 302 304 305 305 304 303 303 302 300 298 297 295 292 288 285 282 280 278 276 275 272 271 269 266 263 263 262 260 258 257 256 254 250 246 244 241 241 241 240 240 242 241 242 243
290 293 296 299 301 302 303 304 305 304 303 302 301 299 297 296 294 291 288 286 283 280 277 274 273 272 270 269 266 264 263 262 261 260 259 258 255 252 252 251 247 244 243 240 239 241 243 242 242
288 290 295 299 301 302 303 304 304 304 304 303 301 299 297 295 293 291 288 286 283 281 279 276 274 272 270 269 266 265 264 263 261 260 262 260 258 255 254 254 252 247 245 244 240 240 241 242 239
286 291 296 300 302 303 304 305 305 305 305 304 302 301 299 297 295 292 290 287 285 282 280 278 276 275 273 270 268 266 264 263 262 260 260 260 260 258 257 256 253 248 246 244 241 239 240 241 240
285 292 296 299 302 304 305 306 306 305 306 304 303 303 302 301 299 296 293 290 287 285 283 281 279 277 275 272 269 267 265 263 261 260 259 259 259 258 257 256 255 251 250 245 239 239 241 241 242
286 291 295 298 302 304 306 307 306 306 306 306 306 306 306 304 302 299 297 295 293 291 289 287 283 280 277 275 272 268 266 264 263 261 259 258 258 257 255 254 253 250 249 247 241 238 239 239 238
285 291 295 299 304 306 307 307 306 307 307 308 309 310 310 309 308 307 305 303 300 298 296 293 289 286 282 278 275 271 268 264 262 261 259 258 257 257 255 254 252 251 247 246 244 240 239 237 238
284 290 294 299 304 307 308 307 307 308 310 311 313 314 315 316 317 317 315 312 308 305 302 298 295 292 288 283 279 275 271 267 263 260 259 257 256 255 254 253 252 251 248 245 244 240 239 238 238
283 289 295 302 306 308 309 308 309 311 314 315 317 319 321 323 324 324 323 321 317 314 310 305 301 298 294 289 284 280 275 270 265 261 259 257 255 254 253 252 251 250 248 246 245 241 240 240 239
281 290 297 303 309 311 312 312 313 316 319 321 323 326 327 328 330 329 329 327 324 321 316 311 307 303 300 296 290 285 279 274 268 263 260 257 255 253 252 251 249 248 247 246 245 242 239 238 238
283 292 299 306 311 314 316 317 319 323 325 327 330 332 333 334 335 335 334 333 331 329 326 321 316 311 307 303 298 292 285 277 271 265 261 259 256 253 251 250 248 247 246 245 243 242 240 237 235
286 295 303 309 315 318 322 324 327 331 333 335 337 339 340 340 340 340 340 340 339 338 336 332 328 321 316 313 308 302 295 286 277 270 264 261 257 253 250 249 247 246 245 244 242 240 240 237 234
289 299 306 314 320 325 328 334 338 341 343 345 347 348 348 347 347 347 346 345 343 342 341 340 337 332 327 323 318 313 306 297 287 277 269 263 258 254 251 249 246 245 244 243 242 240 239 238 235
293 303 311 319 326 333 340 346 350 351 355 355 356 356 356 355 354 353 351 351 350 349 346 344 343 341 336 332 327 322 316 309 298 287 275 267 261 256 253 251 247 245 244 243 242 241 239 238 236
296 308 317 326 333 343 354 0 1 4 6 6 6 5 4 1 359 358 356 356 356 355 353 351 351 350 347 343 337 332 327 321 312 301 286 273 265 260 255 251 248 245 244 243 242 240 238 237 236
297 313 327 338 348 4 7 10 12 12 13 12 12 9 5 2 0 360 360 1 2 2 1 1 0 358 354 351 347 343 339 333 324 312 297 281 271 263 257 252 248 246 244 242 241 239 238 237 237
302 323 345 6 15 18 16 19 20 18 17 15 12 9 6 4 3 3 4 4 5 5 5 5 4 2 359 356 352 350 348 344 338 328 314 295 280 267 258 253 248 245 244 242 240 238 237 236 236
307 341 12 22 23 25 26 28 26 23 19 17 15 13 10 9 9 8 8 7 7 6 6 6 6 4 3 2 360 357 354 351 347 340 331 316 298 279 264 256 251 246 243 241 240 239 236 236 235
277 68 51 41 42 39 37 34 30 24 21 19 19 18 16 15 14 13 12 11 10 9 8 8 8 7 6 6 5 3 1 359 357 352 345 337 320 297 276 262 253 248 244 241 241 239 237 236 234
154 107 83 64 56 50 39 31 28 23 24 24 22 20 19 18 17 16 15 13 12 11 10 10 9 10 10 10 9 8 7 5 4 0 355 351 344 327 297 275 260 252 246 241 239 238 236 234 233
151 114 89 78 73 59 42 34 29 26 25 24 22 20 19 19 19 18 17 16 15 14 13 13 13 13 13 12 12 11 10 10 10 9 8 5 1 351 331 301 279 262 250 244 241 238 236 234 234
145 121 103 97 83 59 44 36 30 28 24 22 21 20 20 19 18 18 17 17 16 15 15 15 15 15 15 14 14 14 13 13 14 14 14 13 11 4 353 331 302 277 260 250 245 242 239 237 235
Height
5931 5930 5929 5929 5929 5929 5927 5927 5925 5924 5923 5922 5921 5920 5919 5918 5918 5919 5916 5914 5913 5913 5912 5911 5911 5911 5910 5910 5910 5910 5910 5909 5909 5909 5908 5908 5908 5907 5907 5907 5906 5906 5906 5906 5905 5905 5905 5904 5904
5932 5931 5931 5930 5930 5929 5928 5927 5926 5924 5923 5922 5920 5919 5918 5917 5916 5915 5913 5912 5912 5911 5911 5910 5910 5909 5909 5908 5908 5908 5908 5908 5908 5907 5907 5906 5906 5906 5906 5905 5905 5905 5905 5904 5904 5904 5903 5903 5902
5932 5931 5932 5931 5929 5929 5928 5926 5925 5924 5922 5921 5920 5919 5918 5917 5915 5914 5912 5911 5910 5909 5909 5908 5907 5907 5907 5906 5906 5906 5906 5906 5905 5905 5905 5905 5904 5904 5904 5904 5904 5904 5903 5903 5903 5903 5902 5902 5901
5932 5932 5932 5931 5929 5929 5927 5926 5924 5923 5921 5920 5919 5918 5916 5915 5914 5912 5911 5909 5908 5907 5906 5905 5904 5904 5904 5903 5903 5903 5903 5903 5903 5903 5902 5902 5902 5902 5902 5902 5902 5902 5902 5902 5902 5901 5901 5901 5900
5932 5932 5931 5930 5929 5928 5926 5925 5923 5922 5920 5919 5917 5916 5914 5913 5911 5910 5909 5907 5906 5905 5904 5902 5901 5901 5900 5900 5900 5900 5899 5899 5899 5899 5899 5899 5899 5900 5900 5900 5900 5900 5900 5900 5900 5900 5900 5900 5899
5932 5931 5931 5930 5928 5927 5925 5923 5922 5920 5918 5917 5916 5914 5912 5911 5909 5908 5906 5905 5903 5902 5901 5899 5898 5898 5897 5896 5896 5895 5895 5895 5895 5895 5895 5896 5896 5896 5897 5897 5898 5898 5898 5898 5898 5898 5898 5898 5898
5931 5930 5929 5928 5927 5925 5924 5922 5920 5918 5916 5915 5913 5912 5910 5908 5906 5904 5903 5901 5900 5898 5897 5896 5895 5894 5893 5892 5891 5891 5891 5890 5890 5890 5890 5891 5892 5892 5893 5894 5895 5895 5895 5896 5896 5896 5896 5896 5897
5929 5930 5928 5926 5925 5924 5922 5919 5918 5916 5914 5912 5911 5909 5907 5905 5903 5901 5899 5897 5896 5894 5893 5891 5890 5889 5888 5887 5887 5886 5886 5886 5886 5885 5886 5886 5887 5888 5889 5890 5891 5891 5892 5892 5893 5893 5894 5894 5895
5927 5928 5926 5924 5923 5921 5919 5917 5915 5913 5911 5909 5907 5905 5903 5901 5899 5897 5895 5893 5891 5890 5888 5887 5885 5884 5883 5882 5882 5881 5881 5880 5880 5880 5881 5881 5881 5882 5884 5885 5886 5887 5888 5889 5890 5890 5891 5891 5892
5925 5925 5924 5922 5920 5918 5916 5914 5912 5910 5908 5906 5903 5901 5898 5896 5894 5892 5889 5887 5885 5884 5882 5881 5879 5878 5877 5876 5875 5875 5875 5875 5874 5875 5875 5876 5876 5877 5878 5880 5881 5882 5883 5884 5885 5886 5887 5888 5889
5922 5922 5920 5919 5917 5915 5913 5911 5908 5906 5904 5902 5899 5897 5894 5891 5889 5886 5884 5881 5879 5877 5875 5873 5872 5870 5870 5869 5868 5868 5868 5868 5868 5868 5869 5869 5870 5871 5872 5874 5875 5876 5878 5879 5880 5882 5883 5884 5885
5920 5919 5917 5915 5914 5912 5910 5907 5905 5902 5900 5897 5894 5891 5888 5886 5883 5880 5877 5875 5872 5870 5868 5866 5864 5863 5862 5861 5860 5860 5860 5860 5861 5861 5862 5863 5864 5865 5866 5868 5869 5870 5872 5873 5875 5877 5878 5880 5881
5917 5916 5914 5912 5910 5908 5906 5904 5901 5898 5895 5892 5889 5886 5883 5880 5876 5873 5870 5867 5865 5862 5860 5858 5856 5855 5853 5852 5852 5852 5851 5852 5852 5853 5854 5855 5857 5858 5859 5861 5862 5864 5865 5867 5869 5871 5873 5875 5876
5914 5913 5911 5909 5907 5905 5903 5900 5897 5893 5890 5887 5884 5880 5877 5874 5870 5867 5864 5861 5858 5855 5853 5851 5849 5847 5845 5844 5843 5843 5842 5843 5843 5844 5845 5847 5848 5850 5852 5853 5855 5857 5858 5860 5863 5865 5868 5869 5871
5911 5910 5908 5906 5904 5902 5900 5897 5893 5889 5886 5882 5879 5876 5872 5868 5865 5861 5858 5855 5852 5849 5846 5844 5841 5839 5838 5836 5835 5834 5833 5833 5834 5834 5835 5837 5839 5841 5843 5845 5847 5849 5851 5853 5856 5859 5861 5863 5865
5908 5907 5905 5903 5901 5898 5897 5893 5889 5885 5881 5878 5875 5871 5868 5864 5860 5857 5853 5850 5847 5843 5840 5837 5835 5833 5831 5829 5827 5826 5825 5825 5825 5825 5826 5827 5829 5831 5834 5837 5839 5841 5843 5846 5849 5851 5854 5857 5859
5905 5904 5902 5900 5898 5895 5892 5889 5885 5881 5878 5874 5871 5867 5864 5860 5857 5853 5849 5846 5842 5839 5835 5832 5829 5826 5824 5822 5820 5818 5817 5816 5816 5816 5817 5818 5819 5821 5824 5827 5830 5832 5835 5838 5841 5844 5847 5850 5853
5903 5902 5899 5897 5894 5891 5888 5885 5881 5878 5874 5871 5868 5865 5861 5858 5854 5850 5846 5842 5838 5835 5831 5827 5824 5821 5818 5815 5813 5811 5809 5808 5808 5807 5808 5809 5810 5812 5814 5817 5820 5823 5826 5830 5834 5837 5840 5843 5846
5899 5898 5896 5894 5890 5888 5885 5881 5878 5875 5872 5869 5866 5862 5859 5855 5851 5847 5844 5840 5835 5831 5827 5823 5819 5816 5812 5809 5806 5804 5802 5800 5799 5799 5799 5800 5801 5803 5805 5807 5810 5813 5817 5821 5825 5828 5832 5835 5839
5896 5895 5893 5890 5888 5885 5882 5879 5875 5872 5870 5867 5864 5860 5857 5853 5849 5845 5841 5837 5833 5829 5824 5820 5815 5811 5808 5804 5801 5798 5796 5794 5792 5791 5791 5791 5792 5793 5795 5798 5801 5804 5807 5811 5815 5819 5823 5826 5831
5893 5892 5890 5887 5885 5882 5879 5877 5874 5871 5868 5865 5862 5859 5855 5852 5848 5844 5840 5836 5831 5826 5822 5817 5812 5808 5804 5801 5797 5794 5791 5788 5786 5784 5784 5784 5784 5785 5787 5789 5792 5795 5798 5802 5806 5810 5814 5818 5822
5890 5889 5887 5885 5882 5880 5878 5876 5873 5870 5867 5864 5861 5858 5855 5851 5847 5843 5839 5834 5830 5825 5820 5815 5810 5806 5802 5798 5794 5790 5787 5783 5780 5778 5777 5777 5777 5778 5779 5781 5783 5786 5789 5792 5796 5800 5805 5809 5814
5887 5886 5884 5882 5880 5879 5877 5875 5873 5869 5866 5864 5861 5858 5854 5851 5847 5842 5838 5833 5829 5824 5818 5813 5808 5804 5800 5795 5791 5787 5783 5779 5775 5773 5771 5770 5770 5771 5772 5773 5775 5778 5781 5784 5788 5791 5796 5800 5805
5885 5884 5883 5881 5879 5878 5876 5875 5873 5869 5866 5864 5861 5858 5854 5850 5846 5842 5838 5833 5828 5823 5818 5812 5808 5803 5798 5794 5789 5784 5780 5776 5772 5769 5766 5765 5764 5764 5765 5766 5768 5770 5773 5776 5779 5783 5787 5791 5796
5883 5883 5882 5880 5879 5878 5876 5874 5873 5869 5866 5864 5861 5857 5854 5850 5846 5842 5837 5833 5828 5823 5818 5812 5807 5803 5798 5792 5787 5783 5778 5773 5769 5765 5762 5760 5759 5759 5759 5760 5762 5764 5766 5768 5771 5774 5778 5783 5787
5881 5881 5881 5880 5879 5877 5875 5873 5872 5869 5866 5864 5861 5857 5854 5850 5846 5841 5837 5833 5828 5823 5818 5813 5808 5802 5797 5792 5786 5781 5776 5771 5767 5763 5759 5757 5755 5754 5755 5755 5756 5758 5759 5762 5764 5767 5770 5774 5778
5880 5880 5880 5879 5878 5877 5875 5874 5872 5869 5867 5864 5861 5857 5854 5850 5846 5842 5838 5833 5829 5824 5818 5813 5808 5802 5797 5791 5786 5780 5775 5770 5765 5761 5758 5755 5753 5751 5751 5751 5752 5753 5754 5756 5758 5760 5763 5767 5771
5879 5879 5879 5878 5877 5876 5875 5874 5872 5869 5867 5864 5861 5858 5854 5850 5846 5842 5838 5834 5829 5824 5819 5814 5808 5803 5797 5792 5786 5780 5775 5770 5765 5760 5756 5753 5751 5749 5748 5748 5748 5748 5749 5751 5753 5755 5757 5760 5764
5878 5878 5877 5877 5877 5876 5875 5876 5872 5870 5867 5865 5862 5858 5855 5851 5847 5843 5839 5835 5830 5825 5820 5814 5809 5803 5798 5792 5786 5781 5775 5770 5765 5761 5757 5753 5751 5749 5747 5746 5745 5745 5746 5747 5748 5750 5752 5755 5758
5877 5877 5877 5877 5876 5875 5875 5877 5871 5869 5867 5865 5862 5859 5855 5852 5848 5844 5840 5836 5831 5826 5821 5816 5810 5805 5799 5793 5787 5782 5776 5771 5766 5761 5757 5754 5751 5749 5746 5744 5743 5742 5742 5743 5744 5745 5747 5750 5752